#timestamp,LO_Frequency,Hit,StdDev 
1607196495.4,286047015.7,P
1607196515.2,286047017.7,P
1607196535.1,286047018.6,P
1607196536.0,286047018.6,Y
1607196555.8,286047000.0,P
1607196575.6,286047000.9,N
1607196595.5,286047000.3,N
1607196615.3,286047002.4,N
1607196635.1,286047000.9,N
1607196655.9,286047002.3,N
1607196675.7,286047000.4,N
1607196695.5,286046998.1,N
1607196715.4,286047000.7,N
1607196735.2,286047000.9,N
1607196755.1,286047000.6,N
1607196756.0,286047000.6,N
1607196775.8,286047002.7,N
1607196795.6,286047002.0,N
1607196815.5,286047002.0,N
1607196835.3,286047002.2,N
1607196855.1,286047000.5,N
1607196875.9,286046998.6,N
1607196895.7,286046996.6,N
1607196915.6,286046997.3,N
1607196935.4,286046997.2,N
1607196955.2,286046997.2,N
1607196975.1,286046997.6,N
1607196976.0,286046997.6,N
1607196995.8,286046995.5,N
1607197015.6,286046996.2,N
1607197035.5,286046993.8,N
1607197055.3,286046996.0,N
1607197075.2,286046994.0,N
1607197095.9,286046993.6,N
1607197115.7,286046994.1,N
1607197135.6,286046991.9,N
1607197155.4,286046994.7,N
1607197175.2,286046994.3,N
1607197195.1,286046994.7,N
1607197196.0,286046994.7,N
1607197215.8,286046994.2,N
1607197235.7,286046991.9,N
1607197255.5,286046994.1,N
1607197275.3,286046993.4,N
1607197295.2,286046994.0,N
1607197315.0,286046993.9,N
1607197315.9,286046993.9,N
1607197335.8,286046995.9,N
1607197355.6,286046995.1,N
1607197375.4,286046997.3,N
1607197395.3,286046997.6,N
1607197415.1,286046998.0,N
1607197435.8,286046995.4,N
1607197455.7,286046995.0,N
1607197475.5,286046994.9,Y
1607197495.4,286047002.6,P
1607197515.2,286047002.4,N
1607197535.0,286047001.5,N
1607197535.9,286047001.5,N
1607197555.8,286047001.9,N
1607197575.6,286047001.7,N
1607197595.4,286047001.6,N
1607197615.3,286047001.4,N
1607197635.1,286047006.0,N
1607197655.9,286047002.9,N
1607197675.7,286047005.7,N
1607197695.5,286047005.3,N
1607197715.4,286047002.9,N
1607197735.2,286047004.4,N
1607197755.0,286047001.4,N
1607197755.9,286047001.4,N
1607197775.8,286047001.5,N
1607197795.6,286047004.4,N
1607197815.5,286047004.0,N
1607197835.3,286047006.0,N
1607197855.1,286047004.0,N
1607197875.9,286047003.9,N
1607197895.7,286047004.1,N
1607197915.5,286047001.6,N
1607197935.4,286047002.3,N
1607197955.2,286047000.1,N
1607197975.1,286047000.2,N
1607197976.0,286047000.2,N
1607197995.8,286047000.9,N
1607198015.6,286047002.8,N
1607198035.5,286046999.9,N
1607198055.3,286047000.3,N
1607198075.1,286046999.9,N
1607198095.9,286047001.0,N
1607198115.7,286046998.8,N
1607198135.6,286046997.4,N
1607198155.4,286046996.2,N
1607198175.2,286046992.3,Y
1607198195.1,286046991.1,P
1607198196.0,286046991.1,N
1607198215.8,286046988.0,N
1607198235.6,286046986.0,N
1607198255.5,286046985.5,N
1607198275.3,286046983.7,N
1607198295.1,286046984.4,N
1607198315.9,286046982.1,Y
1607198335.7,286046991.7,P
1607198355.6,286046990.1,P
1607198375.4,286046992.5,P
1607198395.2,286046990.4,Y
